Вернуться в каталог

SL-14 R/B

АктивенPO
NORAD 20238·ROCKET BODY·🇷🇺 Russia

Запущен Sep 14, 1989 с Plesetsk Cosmodrome

Loading…

Ближайшие Пролёты (ближайшие 24 часа)

TLE

СвежийSource: Space-Track

Эпоха: Sep 14, 2026, 03:20 UTC

1 20238U 89074G   26257.13909119  .00000034  00000-0  14329-3 0  9997
2 20238  82.5934 312.1053 0039119 212.8184 175.1302 12.55325558695260

Отслеживайте SL-14 R/B в реальном времени с AllMySat

Download on the App Store